Time,TemperatureF,DewpointF,PressureIn,WindDirection,WindDirectionDegrees,WindSpeedMPH,WindSpeedGustMPH,Humidity,HourlyPrecipIn,Conditions,Clouds,dailyrainin,SolarRadiationWatts/m^2,SoftwareType,DateUTC
2013-06-05 00:02:00,73.1,66.2,29.89,SE,130,0.0,0.0,79,0.00,,CLR,0.00,0.00,VWS V14.01,2013-06-05 05:02:00,
2013-06-05 00:07:00,73.1,66.6,29.89,SE,130,0.0,0.0,80,0.00,,CLR,0.00,0.00,VWS V14.01,2013-06-05 05:07:00,
2013-06-05 00:12:00,72.9,66.4,29.89,SE,130,0.0,0.0,80,0.00,,CLR,0.00,0.00,VWS V14.01,2013-06-05 05:12:00,
2013-06-05 00:17:00,72.7,66.2,29.89,SE,130,0.0,0.0,80,0.00,,CLR,0.00,0.00,VWS V14.01,2013-06-05 05:17:00,
2013-06-05 00:22:00,72.7,66.5,29.89,SE,130,0.0,0.0,81,0.00,,CLR,0.00,0.00,VWS V14.01,2013-06-05 05:22:00,
2013-06-05 00:27:00,72.5,66.3,29.89,SE,130,0.0,0.0,81,0.00,,CLR,0.00,0.00,VWS V14.01,2013-06-05 05:27:00,
2013-06-05 00:32:00,72.5,66.3,29.89,SE,130,0.0,3.0,81,0.00,,OVC048,0.00,0.00,VWS V14.01,2013-06-05 05:32:00,
2013-06-05 00:37:00,72.4,66.2,29.89,SE,132,0.0,0.0,81,0.00,,OVC048,0.00,0.00,VWS V14.01,2013-06-05 05:37:00,
2013-06-05 00:42:00,72.4,66.2,29.89,SE,132,0.0,0.0,81,0.00,,OVC048,0.00,0.00,VWS V14.01,2013-06-05 05:42:00,
2013-06-05 00:47:00,72.4,66.2,29.89,SE,134,0.0,0.0,81,0.00,,OVC048,0.00,0.00,VWS V14.01,2013-06-05 05:47:00,
2013-06-05 00:52:00,72.2,66.1,29.89,SE,134,0.0,0.0,81,0.00,,OVC048,0.00,0.00,VWS V14.01,2013-06-05 05:52:00,
2013-06-05 00:57:00,72.2,66.1,29.89,SE,134,0.0,0.0,81,0.00,,OVC048,0.00,0.00,VWS V14.01,2013-06-05 05:57:00,
2013-06-05 01:02:00,72.2,66.1,29.90,SE,142,0.0,0.0,81,0.00,,OVC048,0.00,0.00,VWS V14.01,2013-06-05 06:02:00,
2013-06-05 01:07:00,72.0,65.9,29.90,SE,141,3.0,3.0,81,0.00,,OVC048,0.00,0.00,VWS V14.01,2013-06-05 06:07:00,
2013-06-05 01:12:00,72.0,65.9,29.90,SE,141,0.0,0.0,81,0.00,,OVC048,0.00,0.00,VWS V14.01,2013-06-05 06:12:00,
2013-06-05 01:17:00,72.0,65.9,29.89,SE,141,0.0,0.0,81,0.00,,OVC048,0.00,0.00,VWS V14.01,2013-06-05 06:17:00,
2013-06-05 01:22:00,72.0,65.9,29.89,SE,142,0.0,3.0,81,0.00,,OVC048,0.00,0.00,VWS V14.01,2013-06-05 06:22:00,
2013-06-05 01:27:00,72.0,65.9,29.89,SE,142,0.0,0.0,81,0.00,,OVC048,0.00,0.00,VWS V14.01,2013-06-05 06:27:00,
2013-06-05 01:32:00,72.0,65.9,29.89,SE,142,1.0,1.0,81,0.00,,BKN060,0.00,0.00,VWS V14.01,2013-06-05 06:32:00,
2013-06-05 01:37:00,72.0,65.9,29.89,SE,142,0.0,5.0,81,0.00,,BKN060,0.00,0.00,VWS V14.01,2013-06-05 06:37:00,
2013-06-05 01:42:00,72.2,66.1,29.89,SE,142,0.0,0.0,81,0.00,,BKN060,0.00,0.00,VWS V14.01,2013-06-05 06:42:00,
2013-06-05 01:47:00,72.2,66.1,29.90,SSE,150,0.0,6.0,81,0.00,,BKN060,0.00,0.00,VWS V14.01,2013-06-05 06:47:00,
2013-06-05 01:52:00,72.2,65.7,29.90,SSE,154,0.0,3.0,80,0.00,,BKN060,0.00,0.00,VWS V14.01,2013-06-05 06:52:00,
2013-06-05 01:57:00,72.2,65.7,29.90,SSE,155,0.0,5.0,80,0.00,,BKN060,0.00,0.00,VWS V14.01,2013-06-05 06:57:00,
2013-06-05 02:02:00,72.2,65.7,29.89,SSE,155,0.0,0.0,80,0.00,,BKN060,0.00,0.00,VWS V14.01,2013-06-05 07:02:00,
2013-06-05 02:07:00,72.2,65.7,29.89,SSE,155,0.0,0.0,80,0.00,,BKN060,0.00,0.00,VWS V14.01,2013-06-05 07:07:00,
2013-06-05 02:12:00,72.2,65.7,29.89,SSE,155,0.0,0.0,80,0.00,,BKN060,0.00,0.00,VWS V14.01,2013-06-05 07:12:00,
2013-06-05 02:17:00,72.0,65.5,29.89,SSE,155,0.0,0.0,80,0.00,,BKN060,0.00,0.00,VWS V14.01,2013-06-05 07:17:00,
2013-06-05 02:22:00,72.0,65.5,29.89,SSE,155,0.0,0.0,80,0.00,,BKN060,0.00,0.00,VWS V14.01,2013-06-05 07:22:00,
2013-06-05 02:27:00,72.0,65.5,29.89,SSE,155,0.0,0.0,80,0.00,,BKN060,0.00,0.00,VWS V14.01,2013-06-05 07:27:00,
2013-06-05 02:32:00,72.0,65.5,29.89,SSE,155,0.0,0.0,80,0.00,,OVC075,0.00,0.00,VWS V14.01,2013-06-05 07:32:00,
2013-06-05 02:37:00,71.8,65.3,29.89,SSE,155,0.0,0.0,80,0.00,,OVC075,0.00,0.00,VWS V14.01,2013-06-05 07:37:00,
2013-06-05 02:42:00,71.8,65.7,29.89,SSE,155,0.0,0.0,81,0.00,,OVC075,0.00,0.00,VWS V14.01,2013-06-05 07:42:00,
2013-06-05 02:47:00,71.8,65.7,29.87,SSE,155,0.0,0.0,81,0.00,,OVC075,0.00,0.00,VWS V14.01,2013-06-05 07:47:00,
2013-06-05 02:52:00,71.7,65.6,29.87,SSE,155,0.0,0.0,81,0.00,,OVC075,0.00,0.00,VWS V14.01,2013-06-05 07:52:00,
2013-06-05 02:57:00,71.7,65.6,29.87,SSE,155,0.0,0.0,81,0.00,,OVC075,0.00,0.00,VWS V14.01,2013-06-05 07:57:00,
2013-06-05 03:02:00,71.5,65.4,29.86,SSE,153,0.0,0.0,81,0.00,,OVC075,0.00,0.00,VWS V14.01,2013-06-05 08:02:00,
2013-06-05 03:07:00,71.5,65.4,29.86,SSE,157,0.0,5.0,81,0.00,,OVC075,0.00,0.00,VWS V14.01,2013-06-05 08:07:00,
2013-06-05 03:12:00,71.3,65.2,29.86,SSE,157,0.0,0.0,81,0.00,,OVC075,0.00,0.00,VWS V14.01,2013-06-05 08:12:00,
2013-06-05 03:17:00,71.3,65.2,29.85,SSE,157,0.0,0.0,81,0.00,,OVC075,0.00,0.00,VWS V14.01,2013-06-05 08:17:00,
2013-06-05 03:22:00,71.3,65.2,29.85,SSE,157,0.0,0.0,81,0.00,,OVC075,0.00,0.00,VWS V14.01,2013-06-05 08:22:00,
2013-06-05 03:27:00,71.2,65.1,29.85,SSE,157,0.0,0.0,81,0.00,,OVC075,0.00,0.00,VWS V14.01,2013-06-05 08:27:00,
2013-06-05 03:32:00,71.2,65.1,29.85,SSE,157,0.0,0.0,81,0.00,,OVC050,0.00,0.00,VWS V14.01,2013-06-05 08:32:00,
2013-06-05 03:37:00,71.2,65.1,29.85,SSE,157,0.0,0.0,81,0.00,,OVC050,0.00,0.00,VWS V14.01,2013-06-05 08:37:00,
2013-06-05 03:42:00,71.0,64.9,29.85,SSE,157,0.0,0.0,81,0.00,,OVC050,0.00,0.00,VWS V14.01,2013-06-05 08:42:00,
2013-06-05 03:47:00,71.0,64.9,29.85,SSE,157,0.0,0.0,81,0.00,,OVC050,0.00,0.00,VWS V14.01,2013-06-05 08:47:00,
2013-06-05 03:52:00,71.0,64.9,29.85,SSE,157,0.0,0.0,81,0.00,,OVC050,0.00,0.00,VWS V14.01,2013-06-05 08:52:00,
2013-06-05 03:57:00,71.0,64.9,29.85,SSE,157,0.0,0.0,81,0.00,,OVC050,0.00,0.00,VWS V14.01,2013-06-05 08:57:00,
2013-06-05 04:02:00,70.8,64.7,29.83,SSE,157,0.0,0.0,81,0.00,,OVC050,0.00,0.00,VWS V14.01,2013-06-05 09:02:00,
2013-06-05 04:07:00,70.8,64.7,29.83,SSE,157,0.0,1.0,81,0.00,,OVC050,0.00,0.00,VWS V14.01,2013-06-05 09:07:00,
2013-06-05 04:12:00,70.8,64.7,29.83,SSE,157,0.0,0.0,81,0.00,,OVC050,0.00,0.00,VWS V14.01,2013-06-05 09:12:00,
2013-06-05 04:17:00,70.6,64.5,29.83,SSE,157,0.0,0.0,81,0.00,,OVC050,0.00,0.00,VWS V14.01,2013-06-05 09:17:00,
2013-06-05 04:22:00,70.6,64.5,29.83,SSE,157,0.0,0.0,81,0.00,,OVC050,0.00,0.00,VWS V14.01,2013-06-05 09:22:00,
2013-06-05 04:27:00,70.6,64.5,29.83,SSE,157,0.0,0.0,81,0.00,,OVC050,0.00,0.00,VWS V14.01,2013-06-05 09:27:00,
2013-06-05 04:32:00,70.5,64.4,29.85,SSE,157,0.0,0.0,81,0.00,,OVC050,0.00,0.00,VWS V14.01,2013-06-05 09:32:00,
2013-06-05 04:37:00,70.5,64.4,29.85,SSE,157,0.0,0.0,81,0.00,,OVC050,0.00,0.00,VWS V14.01,2013-06-05 09:37:00,
2013-06-05 04:42:00,70.5,64.4,29.85,SSE,157,0.0,1.0,81,0.00,,OVC050,0.00,0.00,VWS V14.01,2013-06-05 09:42:00,
2013-06-05 04:47:00,70.5,64.4,29.85,SSE,157,0.0,0.0,81,0.00,,OVC050,0.00,0.00,VWS V14.01,2013-06-05 09:47:00,
2013-06-05 04:52:00,70.5,64.4,29.85,SSE,157,0.0,0.0,81,0.00,,OVC050,0.00,0.00,VWS V14.01,2013-06-05 09:52:00,
2013-06-05 04:57:00,70.5,64.4,29.85,SSE,157,0.0,0.0,81,0.00,,OVC050,0.00,0.00,VWS V14.01,2013-06-05 09:57:00,
2013-06-05 05:02:00,70.5,64.4,29.86,SSE,157,0.0,0.0,81,0.00,,OVC050,0.00,0.00,VWS V14.01,2013-06-05 10:02:00,
2013-06-05 05:07:00,70.5,64.4,29.86,SSE,165,0.0,6.0,81,0.00,,OVC050,0.00,0.00,VWS V14.01,2013-06-05 10:07:00,
2013-06-05 05:12:00,70.5,64.4,29.86,SSE,166,0.0,4.0,81,0.00,,OVC050,0.00,0.00,VWS V14.01,2013-06-05 10:12:00,
2013-06-05 05:17:00,70.5,64.4,29.85,SSE,166,0.0,0.0,81,0.00,,OVC050,0.00,0.00,VWS V14.01,2013-06-05 10:17:00,
2013-06-05 05:22:00,70.5,64.4,29.85,SSE,165,1.0,1.0,81,0.00,,OVC050,0.00,0.00,VWS V14.01,2013-06-05 10:22:00,
2013-06-05 05:27:00,70.5,64.4,29.85,SSE,165,0.0,0.0,81,0.00,,OVC050,0.00,0.00,VWS V14.01,2013-06-05 10:27:00,
2013-06-05 05:32:00,70.5,64.4,29.88,SW,234,5.0,6.0,81,0.00,,OVC090,0.00,0.00,VWS V14.01,2013-06-05 10:32:00,
2013-06-05 05:37:00,70.5,64.4,29.88,West,260,9.0,18.0,81,0.00,,OVC090,0.00,0.00,VWS V14.01,2013-06-05 10:37:00,
2013-06-05 05:42:00,70.3,63.1,29.88,NW,321,4.0,13.0,78,0.00,,OVC090,0.00,0.00,VWS V14.01,2013-06-05 10:42:00,
2013-06-05 05:47:00,70.3,63.1,29.92,West,277,14.0,18.0,78,0.00,,OVC090,0.00,0.00,VWS V14.01,2013-06-05 10:47:00,
2013-06-05 05:52:00,69.6,63.5,29.92,NNW,330,0.0,15.0,81,0.02,,OVC090,0.02,0.00,VWS V14.01,2013-06-05 10:52:00,
2013-06-05 05:57:00,68.4,63.4,29.92,WNW,296,0.0,6.0,84,0.11,,OVC090,0.11,0.00,VWS V14.01,2013-06-05 10:57:00,
2013-06-05 06:02:00,67.8,63.5,29.94,West,281,0.0,9.0,86,0.22,,OVC090,0.22,0.00,VWS V14.01,2013-06-05 11:02:00,
2013-06-05 06:07:00,67.3,63.3,29.94,West,273,0.0,11.0,87,0.35,,OVC090,0.35,0.00,VWS V14.01,2013-06-05 11:07:00,
2013-06-05 06:12:00,66.8,63.1,29.94,West,272,0.0,2.0,88,0.44,,OVC090,0.44,0.00,VWS V14.01,2013-06-05 11:12:00,
2013-06-05 06:17:00,66.6,63.3,29.95,West,272,0.0,0.0,89,0.53,,OVC090,0.53,0.00,VWS V14.01,2013-06-05 11:17:00,
2013-06-05 06:22:00,66.6,63.3,29.95,West,281,0.0,0.0,89,0.57,,OVC090,0.57,0.00,VWS V14.01,2013-06-05 11:22:00,
2013-06-05 06:27:00,66.4,63.4,29.95,West,281,0.0,0.0,90,0.59,,OVC090,0.59,0.00,VWS V14.01,2013-06-05 11:27:00,
2013-06-05 06:32:00,66.3,63.3,29.94,West,281,0.0,0.0,90,0.60,,OVC110,0.60,0.00,VWS V14.01,2013-06-05 11:32:00,
2013-06-05 06:37:00,66.3,63.3,29.94,West,266,1.0,1.0,90,0.60,,OVC110,0.60,0.00,VWS V14.01,2013-06-05 11:37:00,
2013-06-05 06:42:00,66.3,63.6,29.94,West,272,6.0,10.0,91,0.61,,OVC110,0.61,0.00,VWS V14.01,2013-06-05 11:42:00,
2013-06-05 06:47:00,66.1,63.4,29.97,West,264,0.0,0.0,91,0.63,,OVC110,0.63,0.00,VWS V14.01,2013-06-05 11:47:00,
2013-06-05 06:52:00,66.1,63.4,29.97,WSW,247,0.0,0.0,91,0.63,,OVC110,0.64,0.00,VWS V14.01,2013-06-05 11:52:00,
2013-06-05 06:57:00,65.9,63.5,29.97,WSW,246,0.0,4.0,92,0.59,,OVC110,0.66,0.00,VWS V14.01,2013-06-05 11:57:00,
2013-06-05 07:02:00,65.9,63.5,29.97,WSW,244,1.0,3.0,92,0.49,,OVC110,0.68,0.00,VWS V14.01,2013-06-05 12:02:00,
2013-06-05 07:07:00,65.8,63.4,29.97,West,264,6.0,6.0,92,0.41,,OVC110,0.71,0.00,VWS V14.01,2013-06-05 12:07:00,
2013-06-05 07:12:00,65.8,63.7,29.97,West,271,3.0,3.0,93,0.32,,OVC110,0.73,0.00,VWS V14.01,2013-06-05 12:12:00,
2013-06-05 07:17:00,65.6,63.5,29.96,WNW,286,2.0,11.0,93,0.25,,OVC110,0.75,0.00,VWS V14.01,2013-06-05 12:17:00,
2013-06-05 07:22:00,65.4,63.3,29.96,West,278,0.0,0.0,93,0.20,,OVC110,0.77,0.00,VWS V14.01,2013-06-05 12:22:00,
2013-06-05 07:27:00,65.3,63.2,29.96,West,267,7.0,9.0,93,0.20,,OVC110,0.79,0.00,VWS V14.01,2013-06-05 12:27:00,
2013-06-05 07:32:00,65.3,63.2,29.96,West,277,0.0,5.0,93,0.22,,OVC110,0.81,0.00,VWS V14.01,2013-06-05 12:32:00,
2013-06-05 07:37:00,65.1,63.0,29.96,West,267,0.0,3.0,93,0.23,,OVC110,0.83,0.00,VWS V14.01,2013-06-05 12:37:00,
2013-06-05 07:42:00,65.1,63.0,29.96,West,268,0.0,0.0,93,0.24,,OVC110,0.85,0.00,VWS V14.01,2013-06-05 12:42:00,
2013-06-05 07:47:00,65.1,63.0,29.93,West,268,0.0,0.0,93,0.25,,OVC110,0.87,0.00,VWS V14.01,2013-06-05 12:47:00,
2013-06-05 07:52:00,65.1,63.0,29.93,WSW,239,0.0,2.0,93,0.25,,OVC110,0.88,0.00,VWS V14.01,2013-06-05 12:52:00,
2013-06-05 07:57:00,64.9,63.1,29.93,SSW,207,0.0,0.0,94,0.25,,OVC110,0.90,5.75,VWS V14.01,2013-06-05 12:57:00,
2013-06-05 08:02:00,64.9,63.1,29.87,South,172,0.0,0.0,94,0.24,,OVC110,0.91,10.35,VWS V14.01,2013-06-05 13:02:00,
2013-06-05 08:07:00,64.9,63.1,29.87,SE,145,0.0,6.0,94,0.22,,OVC110,0.92,12.65,VWS V14.01,2013-06-05 13:07:00,
2013-06-05 08:12:00,64.8,63.0,29.87,SE,136,0.0,0.0,94,0.20,,OVC110,0.93,13.80,VWS V14.01,2013-06-05 13:12:00,
2013-06-05 08:17:00,64.8,63.0,29.83,SE,141,2.0,5.0,94,0.19,,OVC110,0.93,13.80,VWS V14.01,2013-06-05 13:17:00,
2013-06-05 08:22:00,64.8,63.0,29.83,South,170,0.0,5.0,94,0.17,,OVC110,0.94,16.10,VWS V14.01,2013-06-05 13:22:00,
2013-06-05 08:27:00,64.8,63.0,29.83,SSW,209,0.0,0.0,94,0.15,,OVC110,0.94,18.40,VWS V14.01,2013-06-05 13:27:00,
2013-06-05 08:32:00,64.9,63.4,29.87,SSW,211,0.0,0.0,95,0.13,, +RA,0.94,21.85,VWS V14.01,2013-06-05 13:32:00,
2013-06-05 08:37:00,64.9,63.4,29.87,SSW,196,0.0,0.0,95,0.11,, +RA,0.94,32.20,VWS V14.01,2013-06-05 13:37:00,
2013-06-05 08:42:00,64.9,63.4,29.87,SSW,197,0.0,0.0,95,0.10,, +RA,0.94,42.55,VWS V14.01,2013-06-05 13:42:00,
2013-06-05 08:47:00,64.9,63.4,29.90,SSW,192,0.0,0.0,95,0.08,, +RA,0.94,48.30,VWS V14.01,2013-06-05 13:47:00,
2013-06-05 08:52:00,65.1,63.6,29.90,South,190,0.0,0.0,95,0.06,, +RA,0.94,50.60,VWS V14.01,2013-06-05 13:52:00,
2013-06-05 08:57:00,65.1,63.6,29.90,South,190,0.0,0.0,95,0.05,, +RA,0.94,50.60,VWS V14.01,2013-06-05 13:57:00,
2013-06-05 09:02:00,65.1,63.6,29.91,SE,136,0.0,0.0,95,0.03,, +RA,0.94,58.65,VWS V14.01,2013-06-05 14:02:00,
2013-06-05 09:07:00,65.3,63.8,29.91,SE,138,0.0,0.0,95,0.02,, +RA,0.94,64.40,VWS V14.01,2013-06-05 14:07:00,
2013-06-05 09:12:00,65.4,63.9,29.91,SE,141,0.0,2.0,95,0.01,, +RA,0.94,60.95,VWS V14.01,2013-06-05 14:12:00,
2013-06-05 09:17:00,65.6,64.1,29.94,WNW,299,0.0,6.0,95,0.01,, +RA,0.94,66.70,VWS V14.01,2013-06-05 14:17:00,
2013-06-05 09:22:00,65.8,64.3,29.94,NW,309,0.0,0.0,95,0.00,, +RA,0.94,79.35,VWS V14.01,2013-06-05 14:22:00,
2013-06-05 09:27:00,65.8,64.3,29.94,WNW,302,0.0,5.0,95,0.00,, +RA,0.94,74.75,VWS V14.01,2013-06-05 14:27:00,
2013-06-05 09:32:00,65.8,64.3,29.94,WNW,302,0.0,0.0,95,0.00,,RA,0.94,93.15,VWS V14.01,2013-06-05 14:32:00,
2013-06-05 09:37:00,65.8,64.3,29.94,WNW,302,0.0,0.0,95,0.00,,RA,0.94,93.15,VWS V14.01,2013-06-05 14:37:00,
2013-06-05 09:42:00,65.8,64.3,29.94,WNW,302,0.0,0.0,95,0.00,,RA,0.94,112.70,VWS V14.01,2013-06-05 14:42:00,
2013-06-05 09:47:00,65.9,64.4,29.95,South,184,0.0,9.0,95,0.00,,RA,0.94,98.90,VWS V14.01,2013-06-05 14:47:00,
2013-06-05 09:52:00,66.1,64.6,29.95,South,183,0.0,0.0,95,0.00,,RA,0.94,119.60,VWS V14.01,2013-06-05 14:52:00,
2013-06-05 09:57:00,66.1,64.6,29.95,South,183,0.0,0.0,95,0.00,,RA,0.94,125.35,VWS V14.01,2013-06-05 14:57:00,
2013-06-05 10:02:00,66.3,64.8,29.96,South,190,0.0,0.0,95,0.00,,RA,0.94,44.85,VWS V14.01,2013-06-05 15:02:00,
2013-06-05 10:07:00,66.3,64.8,29.96,SSW,193,0.0,0.0,95,0.00,,RA,0.94,93.15,VWS V14.01,2013-06-05 15:07:00,
2013-06-05 10:12:00,66.1,64.6,29.96,SSW,193,0.0,0.0,95,0.01,,RA,0.95,80.50,VWS V14.01,2013-06-05 15:12:00,
2013-06-05 10:17:00,66.1,64.6,29.86,SE,142,0.0,6.0,95,0.01,,RA,0.95,66.70,VWS V14.01,2013-06-05 15:17:00,
2013-06-05 10:22:00,65.9,64.4,29.86,SE,144,0.0,0.0,95,0.01,,RA,0.95,104.65,VWS V14.01,2013-06-05 15:22:00,
2013-06-05 10:27:00,66.1,64.9,29.86,ENE,78,4.0,6.0,96,0.01,,RA,0.95,163.30,VWS V14.01,2013-06-05 15:27:00,
2013-06-05 10:32:00,66.4,65.2,29.86,South,169,0.0,6.0,96,0.01,,FEW100,0.95,221.95,VWS V14.01,2013-06-05 15:32:00,
2013-06-05 10:37:00,66.4,65.2,29.86,South,180,2.0,10.0,96,0.01,,FEW100,0.95,210.45,VWS V14.01,2013-06-05 15:37:00,
2013-06-05 10:42:00,66.6,65.4,29.86,South,188,0.0,8.0,96,0.01,,FEW100,0.95,178.25,VWS V14.01,2013-06-05 15:42:00,
2013-06-05 10:47:00,66.4,64.9,29.89,South,187,0.0,5.0,95,0.01,,FEW100,0.95,159.85,VWS V14.01,2013-06-05 15:47:00,
2013-06-05 10:52:00,66.4,64.9,29.89,South,188,0.0,5.0,95,0.01,,FEW100,0.95,194.35,VWS V14.01,2013-06-05 15:52:00,
2013-06-05 10:57:00,66.6,65.1,29.89,South,188,1.0,5.0,95,0.01,,FEW100,0.95,216.20,VWS V14.01,2013-06-05 15:57:00,
2013-06-05 11:02:00,66.8,65.3,29.90,South,188,0.0,0.0,95,0.01,,FEW100,0.95,181.70,VWS V14.01,2013-06-05 16:02:00,
2013-06-05 11:07:00,66.8,65.3,29.90,South,188,0.0,0.0,95,0.01,,FEW100,0.95,189.75,VWS V14.01,2013-06-05 16:07:00,
2013-06-05 11:12:00,66.8,65.3,29.90,SE,125,0.0,0.0,95,0.01,,FEW100,0.95,296.70,VWS V14.01,2013-06-05 16:12:00,
2013-06-05 11:17:00,66.6,64.8,29.91,ENE,71,0.0,0.0,94,0.00,,FEW100,0.95,285.20,VWS V14.01,2013-06-05 16:17:00,
2013-06-05 11:22:00,66.9,65.4,29.91,ENE,71,0.0,0.0,95,0.00,,FEW100,0.95,187.45,VWS V14.01,2013-06-05 16:22:00,
2013-06-05 11:27:00,67.1,65.3,29.91,ENE,71,0.0,0.0,94,0.00,,FEW100,0.95,162.15,VWS V14.01,2013-06-05 16:27:00,
2013-06-05 11:32:00,67.3,65.5,29.91,ENE,71,0.0,0.0,94,0.00,,FEW009,0.95,320.85,VWS V14.01,2013-06-05 16:32:00,
2013-06-05 11:37:00,67.9,66.1,29.91,ENE,71,0.0,0.0,94,0.00,,FEW009,0.95,397.90,VWS V14.01,2013-06-05 16:37:00,
2013-06-05 11:42:00,68.1,66.0,29.91,ENE,71,0.0,0.0,93,0.00,,FEW009,0.95,392.15,VWS V14.01,2013-06-05 16:42:00,
2013-06-05 11:47:00,68.1,65.7,29.91,ENE,71,0.0,0.0,92,0.00,,FEW009,0.95,343.85,VWS V14.01,2013-06-05 16:47:00,
2013-06-05 11:52:00,68.3,65.6,29.91,ENE,71,0.0,0.0,91,0.00,,FEW009,0.95,384.10,VWS V14.01,2013-06-05 16:52:00,
2013-06-05 11:57:00,68.9,66.2,29.91,East,92,0.0,0.0,91,0.00,,FEW009,0.95,455.40,VWS V14.01,2013-06-05 16:57:00,
2013-06-05 12:02:00,69.3,65.9,29.89,East,88,0.0,0.0,89,0.00,,FEW009,0.95,455.40,VWS V14.01,2013-06-05 17:02:00,
2013-06-05 12:07:00,69.8,66.4,29.89,ESE,119,0.0,0.0,89,0.00,,FEW009,0.95,571.55,VWS V14.01,2013-06-05 17:07:00,
2013-06-05 12:12:00,70.3,66.2,29.89,SSE,147,0.0,0.0,87,0.00,,FEW009,0.95,736.00,VWS V14.01,2013-06-05 17:12:00,
2013-06-05 12:17:00,71.0,66.3,29.90,SSE,167,0.0,0.0,85,0.00,,FEW009,0.95,683.10,VWS V14.01,2013-06-05 17:17:00,
2013-06-05 12:22:00,71.5,66.1,29.90,West,279,4.0,4.0,83,0.00,,FEW009,0.95,645.15,VWS V14.01,2013-06-05 17:22:00,
2013-06-05 12:27:00,71.2,66.1,29.90,West,279,0.0,1.0,84,0.00,,FEW009,0.95,744.05,VWS V14.01,2013-06-05 17:27:00,
2013-06-05 12:32:00,71.5,65.0,29.90,NW,317,0.0,1.0,80,0.00,,SCT014,0.95,773.95,VWS V14.01,2013-06-05 17:32:00,
2013-06-05 12:37:00,71.8,64.9,29.90,WNW,286,0.0,4.0,79,0.00,,SCT014,0.95,733.70,VWS V14.01,2013-06-05 17:37:00,
2013-06-05 12:42:00,72.7,66.5,29.90,West,281,0.0,0.0,81,0.00,,SCT014,0.95,704.95,VWS V14.01,2013-06-05 17:42:00,
2013-06-05 12:47:00,73.1,65.8,29.89,West,281,0.0,0.0,78,0.00,,SCT014,0.95,688.85,VWS V14.01,2013-06-05 17:47:00,
2013-06-05 12:52:00,73.2,65.6,29.89,WNW,293,0.0,1.0,77,0.00,,SCT014,0.95,738.30,VWS V14.01,2013-06-05 17:52:00,
2013-06-05 12:57:00,73.1,65.5,29.89,WNW,290,0.0,4.0,77,0.00,,SCT014,0.95,648.60,VWS V14.01,2013-06-05 17:57:00,
2013-06-05 13:02:00,73.8,66.5,29.88,WNW,289,0.0,0.0,78,0.00,,SCT014,0.95,655.50,VWS V14.01,2013-06-05 18:02:00,
2013-06-05 13:07:00,73.8,65.8,29.88,WNW,283,4.0,10.0,76,0.00,,SCT014,0.95,663.55,VWS V14.01,2013-06-05 18:07:00,
2013-06-05 13:12:00,73.6,65.6,29.88,NW,311,0.0,5.0,76,0.00,,SCT014,0.95,688.85,VWS V14.01,2013-06-05 18:12:00,
2013-06-05 13:17:00,74.5,66.8,29.89,WNW,303,0.0,0.0,77,0.00,,SCT014,0.95,856.75,VWS V14.01,2013-06-05 18:17:00,
2013-06-05 13:22:00,74.5,65.7,29.89,NW,307,0.0,4.0,74,0.00,,SCT014,0.95,856.75,VWS V14.01,2013-06-05 18:22:00,
2013-06-05 13:27:00,75.3,65.7,29.89,WNW,286,2.0,7.0,72,0.00,,SCT014,0.95,920.00,VWS V14.01,2013-06-05 18:27:00,
2013-06-05 13:32:00,75.3,65.3,29.89,West,279,2.0,12.0,71,0.00,,CLR,0.95,838.35,VWS V14.01,2013-06-05 18:32:00,
2013-06-05 13:37:00,75.5,65.4,29.89,WNW,298,0.0,5.0,71,0.00,,CLR,0.95,552.00,VWS V14.01,2013-06-05 18:37:00,
2013-06-05 13:42:00,75.3,65.7,29.89,West,269,1.0,9.0,72,0.00,,CLR,0.95,976.35,VWS V14.01,2013-06-05 18:42:00,
2013-06-05 13:47:00,75.9,65.8,29.89,NW,304,0.0,4.0,71,0.00,,CLR,0.95,1024.65,VWS V14.01,2013-06-05 18:47:00,
2013-06-05 13:52:00,76.2,66.5,29.89,WNW,301,0.0,0.0,72,0.00,,CLR,0.95,853.30,VWS V14.01,2013-06-05 18:52:00,
2013-06-05 13:57:00,76.2,65.3,29.89,NW,321,0.0,7.0,69,0.00,,CLR,0.95,1101.70,VWS V14.01,2013-06-05 18:57:00,
2013-06-05 14:02:00,76.2,64.9,29.89,North,355,0.0,0.0,68,0.00,,CLR,0.95,1072.95,VWS V14.01,2013-06-05 19:02:00,
2013-06-05 14:07:00,76.6,64.8,29.89,NNW,348,1.0,1.0,67,0.00,,CLR,0.95,1040.75,VWS V14.01,2013-06-05 19:07:00,
2013-06-05 14:12:00,77.3,67.2,29.89,WNW,302,0.0,5.0,71,0.00,,CLR,0.95,1018.90,VWS V14.01,2013-06-05 19:12:00,
2013-06-05 14:17:00,77.1,66.2,29.88,NW,309,6.0,6.0,69,0.00,,CLR,0.95,1029.25,VWS V14.01,2013-06-05 19:17:00,
2013-06-05 14:22:00,77.3,66.3,29.88,NW,315,0.0,3.0,69,0.00,,CLR,0.95,1022.35,VWS V14.01,2013-06-05 19:22:00,
2013-06-05 14:27:00,77.9,66.1,29.88,West,278,0.0,11.0,67,0.00,,CLR,0.95,1021.20,VWS V14.01,2013-06-05 19:27:00,
2013-06-05 14:32:00,78.6,66.7,29.88,WNW,298,5.0,18.0,67,0.00,,FEW018,0.95,1022.35,VWS V14.01,2013-06-05 19:32:00,
2013-06-05 14:37:00,78.4,65.7,29.88,West,269,4.0,7.0,65,0.00,,FEW018,0.95,891.25,VWS V14.01,2013-06-05 19:37:00,
2013-06-05 14:42:00,77.9,65.6,29.88,WNW,290,0.0,8.0,66,0.00,,FEW018,0.95,895.85,VWS V14.01,2013-06-05 19:42:00,
2013-06-05 14:47:00,78.3,66.9,29.88,WNW,296,0.0,0.0,68,0.00,,FEW018,0.95,944.15,VWS V14.01,2013-06-05 19:47:00,
2013-06-05 14:52:00,78.6,65.4,29.88,NW,304,4.0,10.0,64,0.00,,FEW018,0.95,963.70,VWS V14.01,2013-06-05 19:52:00,
2013-06-05 14:57:00,78.6,65.4,29.88,West,277,9.0,18.0,64,0.00,,FEW018,0.95,976.35,VWS V14.01,2013-06-05 19:57:00,
2013-06-05 15:02:00,79.2,66.9,29.88,NW,304,3.0,6.0,66,0.00,,FEW018,0.95,955.65,VWS V14.01,2013-06-05 20:02:00,
2013-06-05 15:07:00,79.2,66.0,29.88,NW,319,0.0,11.0,64,0.00,,FEW018,0.95,946.45,VWS V14.01,2013-06-05 20:07:00,
2013-06-05 15:12:00,78.6,65.0,29.88,NW,316,3.0,5.0,63,0.00,,FEW018,0.95,931.50,VWS V14.01,2013-06-05 20:12:00,
2013-06-05 15:17:00,78.6,66.3,29.88,NNW,333,3.0,9.0,66,0.00,,FEW018,0.95,922.30,VWS V14.01,2013-06-05 20:17:00,
2013-06-05 15:22:00,79.0,65.3,29.88,West,278,6.0,7.0,63,0.00,,FEW018,0.95,914.25,VWS V14.01,2013-06-05 20:22:00,
2013-06-05 15:27:00,79.0,65.3,29.88,WNW,298,0.0,0.0,63,0.00,,FEW018,0.95,901.60,VWS V14.01,2013-06-05 20:27:00,
2013-06-05 15:32:00,78.8,64.7,29.87,NNW,331,0.0,5.0,62,0.00,,CLR,0.95,885.50,VWS V14.01,2013-06-05 20:32:00,
2013-06-05 15:37:00,79.0,65.8,29.87,NNW,328,1.0,3.0,64,0.00,,CLR,0.95,872.85,VWS V14.01,2013-06-05 20:37:00,
2013-06-05 15:42:00,79.7,66.0,29.87,WNW,290,0.0,7.0,63,0.00,,CLR,0.95,863.65,VWS V14.01,2013-06-05 20:42:00,
2013-06-05 15:47:00,79.7,66.0,29.86,NW,313,0.0,12.0,63,0.00,,CLR,0.95,824.55,VWS V14.01,2013-06-05 20:47:00,
2013-06-05 15:52:00,79.2,66.0,29.86,North,355,0.0,1.0,64,0.00,,CLR,0.95,813.05,VWS V14.01,2013-06-05 20:52:00,
2013-06-05 15:57:00,79.2,66.0,29.86,NNW,336,0.0,0.0,64,0.00,,CLR,0.95,826.85,VWS V14.01,2013-06-05 20:57:00,
2013-06-05 16:02:00,79.6,66.4,29.87,NW,315,1.0,7.0,64,0.00,,CLR,0.95,832.60,VWS V14.01,2013-06-05 21:02:00,
2013-06-05 16:07:00,79.9,67.1,29.87,NW,304,1.0,12.0,65,0.00,,CLR,0.95,810.75,VWS V14.01,2013-06-05 21:07:00,
2013-06-05 16:12:00,80.1,66.4,29.87,West,273,0.0,7.0,63,0.00,,CLR,0.95,847.55,VWS V14.01,2013-06-05 21:12:00,
2013-06-05 16:17:00,79.9,67.1,29.87,West,272,0.0,6.0,65,0.00,,CLR,0.95,541.65,VWS V14.01,2013-06-05 21:17:00,
2013-06-05 16:22:00,80.7,66.0,29.87,West,269,0.0,7.0,61,0.00,,CLR,0.95,224.25,VWS V14.01,2013-06-05 21:22:00,
2013-06-05 16:27:00,80.7,66.9,29.87,WNW,293,0.0,1.0,63,0.00,,CLR,0.95,371.45,VWS V14.01,2013-06-05 21:27:00,
2013-06-05 16:32:00,80.3,66.1,29.87,WNW,288,3.0,9.0,62,0.00,,FEW031,0.95,205.85,VWS V14.01,2013-06-05 21:32:00,
2013-06-05 16:37:00,80.5,66.3,29.87,WNW,295,0.0,1.0,62,0.00,,FEW031,0.95,555.45,VWS V14.01,2013-06-05 21:37:00,
2013-06-05 16:42:00,80.3,66.6,29.87,West,275,0.0,10.0,63,0.00,,FEW031,0.95,236.90,VWS V14.01,2013-06-05 21:42:00,
2013-06-05 16:47:00,79.6,66.4,29.87,NNW,333,0.0,4.0,64,0.00,,FEW031,0.95,154.10,VWS V14.01,2013-06-05 21:47:00,
2013-06-05 16:52:00,79.4,66.6,29.87,NNW,339,0.0,4.0,65,0.00,,FEW031,0.95,277.15,VWS V14.01,2013-06-05 21:52:00,
2013-06-05 16:57:00,79.6,66.8,29.87,WNW,290,0.0,2.0,65,0.00,,FEW031,0.95,163.30,VWS V14.01,2013-06-05 21:57:00,
2013-06-05 17:02:00,79.7,66.5,29.86,NE,38,0.0,6.0,64,0.00,,FEW031,0.95,151.80,VWS V14.01,2013-06-05 22:02:00,
2013-06-05 17:07:00,79.9,66.7,29.86,NNE,30,0.0,3.0,64,0.00,,FEW031,0.95,184.00,VWS V14.01,2013-06-05 22:07:00,
2013-06-05 17:12:00,80.3,66.6,29.86,NW,321,0.0,5.0,63,0.00,,FEW031,0.95,179.40,VWS V14.01,2013-06-05 22:12:00,
2013-06-05 17:17:00,79.9,64.8,29.86,NNE,16,0.0,5.0,60,0.00,,FEW031,0.95,85.10,VWS V14.01,2013-06-05 22:17:00,
2013-06-05 17:22:00,79.7,65.1,29.86,NE,38,2.0,5.0,61,0.00,,FEW031,0.95,315.10,VWS V14.01,2013-06-05 22:22:00,
2013-06-05 17:27:00,79.9,65.7,29.86,NNE,20,0.0,3.0,62,0.00,,FEW031,0.95,104.65,VWS V14.01,2013-06-05 22:27:00,
2013-06-05 17:32:00,79.9,66.2,29.86,NW,322,0.0,2.0,63,0.00,,CLR,0.95,129.95,VWS V14.01,2013-06-05 22:32:00,
2013-06-05 17:37:00,80.1,65.4,29.86,NW,317,0.0,0.0,61,0.00,,CLR,0.95,104.65,VWS V14.01,2013-06-05 22:37:00,
2013-06-05 17:42:00,80.1,65.4,29.86,NNW,331,0.0,2.0,61,0.00,,CLR,0.95,90.85,VWS V14.01,2013-06-05 22:42:00,
2013-06-05 17:47:00,80.3,66.1,29.85,NNW,345,0.0,0.0,62,0.00,,CLR,0.95,119.60,VWS V14.01,2013-06-05 22:47:00,
2013-06-05 17:52:00,80.3,65.2,29.85,NNE,15,7.0,7.0,60,0.00,,CLR,0.95,109.25,VWS V14.01,2013-06-05 22:52:00,
2013-06-05 17:57:00,80.3,65.6,29.85,NNE,28,4.0,9.0,61,0.00,,CLR,0.95,254.15,VWS V14.01,2013-06-05 22:57:00,
2013-06-05 18:02:00,80.1,65.4,29.85,NNE,28,0.0,4.0,61,0.00,,CLR,0.95,430.10,VWS V14.01,2013-06-05 23:02:00,
2013-06-05 18:07:00,80.1,65.9,29.85,NW,325,0.0,0.0,62,0.00,,CLR,0.95,389.85,VWS V14.01,2013-06-05 23:07:00,
2013-06-05 18:12:00,80.1,66.4,29.85,NW,315,0.0,0.0,63,0.00,,CLR,0.95,263.35,VWS V14.01,2013-06-05 23:12:00,
2013-06-05 18:17:00,79.9,66.2,29.85,WNW,300,0.0,4.0,63,0.00,,CLR,0.95,58.65,VWS V14.01,2013-06-05 23:17:00,
2013-06-05 18:22:00,79.7,65.5,29.85,NNE,15,0.0,2.0,62,0.00,,CLR,0.95,52.90,VWS V14.01,2013-06-05 23:22:00,
2013-06-05 18:27:00,79.7,66.0,29.85,NNE,25,0.0,1.0,63,0.00,,CLR,0.95,42.55,VWS V14.01,2013-06-05 23:27:00,
2013-06-05 18:32:00,79.7,66.0,29.85,North,360,0.0,1.0,63,0.00,,FEW035,0.95,52.90,VWS V14.01,2013-06-05 23:32:00,
2013-06-05 18:37:00,79.7,66.0,29.85,North,5,0.0,4.0,63,0.00,,FEW035,0.95,46.00,VWS V14.01,2013-06-05 23:37:00,
2013-06-05 18:42:00,79.7,66.0,29.85,NNE,23,0.0,3.0,63,0.00,,FEW035,0.95,48.30,VWS V14.01,2013-06-05 23:42:00,
2013-06-05 18:47:00,79.7,66.0,29.85,NNE,19,5.0,5.0,63,0.00,,FEW035,0.95,52.90,VWS V14.01,2013-06-05 23:47:00,
2013-06-05 18:52:00,79.6,66.4,29.85,NNE,23,1.0,1.0,64,0.00,,FEW035,0.95,74.75,VWS V14.01,2013-06-05 23:52:00,
2013-06-05 18:57:00,79.6,65.9,29.85,NNE,28,0.0,2.0,63,0.00,,FEW035,0.95,56.35,VWS V14.01,2013-06-05 23:57:00,
2013-06-05 19:02:00,79.6,66.4,29.85,NE,34,9.0,12.0,64,0.00,,FEW035,0.95,119.60,VWS V14.01,2013-06-06 00:02:00,
2013-06-05 19:07:00,79.4,66.2,29.85,NNE,24,0.0,0.0,64,0.00,,FEW035,0.95,48.30,VWS V14.01,2013-06-06 00:07:00,
2013-06-05 19:12:00,79.2,66.0,29.85,NNE,26,3.0,4.0,64,0.00,,FEW035,0.95,44.85,VWS V14.01,2013-06-06 00:12:00,
2013-06-05 19:17:00,79.2,66.0,29.85,NE,43,1.0,9.0,64,0.00,,FEW035,0.95,56.35,VWS V14.01,2013-06-06 00:17:00,
2013-06-05 19:22:00,79.0,65.8,29.85,NE,38,4.0,9.0,64,0.00,,FEW035,0.95,95.45,VWS V14.01,2013-06-06 00:22:00,
2013-06-05 19:27:00,79.0,65.8,29.85,NNE,28,3.0,13.0,64,0.00,,FEW035,0.95,80.50,VWS V14.01,2013-06-06 00:27:00,
2013-06-05 19:32:00,79.0,65.8,29.85,NNE,22,3.0,7.0,64,0.00,,FEW035,0.95,87.40,VWS V14.01,2013-06-06 00:32:00,
2013-06-05 19:37:00,78.8,66.5,29.85,NNE,22,3.0,9.0,66,0.00,,FEW035,0.95,46.00,VWS V14.01,2013-06-06 00:37:00,
2013-06-05 19:42:00,78.6,66.7,29.85,NNE,24,0.0,10.0,67,0.00,,FEW035,0.95,24.15,VWS V14.01,2013-06-06 00:42:00,
2013-06-05 19:47:00,78.3,67.3,29.85,NE,46,5.0,11.0,69,0.00,,FEW035,0.95,28.75,VWS V14.01,2013-06-06 00:47:00,
2013-06-05 19:52:00,77.9,67.3,29.85,NNE,12,15.0,15.0,70,0.00,,FEW035,0.95,24.15,VWS V14.01,2013-06-06 00:52:00,
2013-06-05 19:57:00,77.5,67.4,29.85,NNE,18,10.0,13.0,71,0.00,,FEW035,0.95,29.90,VWS V14.01,2013-06-06 00:57:00,
2013-06-05 20:02:00,77.1,67.4,29.86,NNE,23,0.0,9.0,72,0.00,,FEW035,0.95,24.15,VWS V14.01,2013-06-06 01:02:00,
2013-06-05 20:07:00,77.0,67.3,29.86,NE,39,0.0,10.0,72,0.00,,FEW035,0.95,18.40,VWS V14.01,2013-06-06 01:07:00,
2013-06-05 20:12:00,76.8,67.1,29.86,NNE,32,7.0,7.0,72,0.00,,FEW035,0.95,16.10,VWS V14.01,2013-06-06 01:12:00,
2013-06-05 20:17:00,76.6,66.9,29.86,NNE,30,0.0,8.0,72,0.00,,FEW035,0.95,13.80,VWS V14.01,2013-06-06 01:17:00,
2013-06-05 20:22:00,76.4,66.7,29.86,NNE,22,0.0,8.0,72,0.00,,FEW035,0.95,10.35,VWS V14.01,2013-06-06 01:22:00,
2013-06-05 20:27:00,76.2,66.5,29.86,NNE,24,0.0,6.0,72,0.00,,FEW035,0.95,8.05,VWS V14.01,2013-06-06 01:27:00,
2013-06-05 20:32:00,75.9,66.2,29.86,NNE,25,0.0,10.0,72,0.00,,FEW035,0.95,5.75,VWS V14.01,2013-06-06 01:32:00,
2013-06-05 20:37:00,75.9,66.6,29.86,NNE,32,0.0,2.0,73,0.00,,FEW035,0.95,0.00,VWS V14.01,2013-06-06 01:37:00,
2013-06-05 20:42:00,75.5,66.2,29.86,NE,36,0.0,0.0,73,0.00,,FEW035,0.95,0.00,VWS V14.01,2013-06-06 01:42:00,
2013-06-05 20:47:00,75.3,66.1,29.87,NE,37,0.0,1.0,73,0.00,,FEW035,0.95,0.00,VWS V14.01,2013-06-06 01:47:00,
2013-06-05 20:52:00,75.3,66.1,29.87,NE,34,0.0,7.0,73,0.00,,FEW035,0.95,0.00,VWS V14.01,2013-06-06 01:52:00,
2013-06-05 20:57:00,75.2,66.0,29.87,NE,34,0.0,0.0,73,0.00,,FEW035,0.95,0.00,VWS V14.01,2013-06-06 01:57:00,
2013-06-05 21:02:00,75.0,66.2,29.88,NNE,28,2.0,2.0,74,0.00,,FEW035,0.95,0.00,VWS V14.01,2013-06-06 02:02:00,
2013-06-05 21:07:00,74.6,65.4,29.88,NE,36,0.0,0.0,73,0.00,,FEW035,0.95,0.00,VWS V14.01,2013-06-06 02:07:00,
2013-06-05 21:12:00,74.5,65.3,29.88,NE,34,0.0,0.0,73,0.00,,FEW035,0.95,0.00,VWS V14.01,2013-06-06 02:12:00,
2013-06-05 21:17:00,74.5,65.3,29.88,NNE,32,0.0,0.0,73,0.00,,FEW035,0.95,0.00,VWS V14.01,2013-06-06 02:17:00,
2013-06-05 21:22:00,74.3,65.1,29.88,NNE,32,0.0,0.0,73,0.00,,FEW035,0.95,0.00,VWS V14.01,2013-06-06 02:22:00,
2013-06-05 21:27:00,74.1,64.9,29.88,NNE,26,0.0,0.0,73,0.00,,FEW035,0.95,0.00,VWS V14.01,2013-06-06 02:27:00,
2013-06-05 21:32:00,73.9,64.7,29.89,NE,42,0.0,0.0,73,0.00,,CLR,0.95,0.00,VWS V14.01,2013-06-06 02:32:00,
2013-06-05 21:37:00,73.9,64.7,29.89,NNE,33,2.0,5.0,73,0.00,,CLR,0.95,0.00,VWS V14.01,2013-06-06 02:37:00,
2013-06-05 21:42:00,73.8,65.0,29.89,NNE,32,0.0,0.0,74,0.00,,CLR,0.95,0.00,VWS V14.01,2013-06-06 02:42:00,
2013-06-05 21:47:00,73.6,64.8,29.91,NNE,30,1.0,1.0,74,0.00,,CLR,0.95,0.00,VWS V14.01,2013-06-06 02:47:00,
2013-06-05 21:52:00,73.4,65.0,29.91,NNE,30,0.0,0.0,75,0.00,,CLR,0.95,0.00,VWS V14.01,2013-06-06 02:52:00,
2013-06-05 21:56:00,73.2,65.2,29.91,NNE,22,0.0,0.0,76,0.00,,CLR,0.95,0.00,VWS V14.01,2013-06-06 02:56:00,
2013-06-05 22:02:00,73.1,65.5,29.91,NE,34,0.0,0.0,77,0.00,,CLR,0.95,0.00,VWS V14.01,2013-06-06 03:02:00,
2013-06-05 22:07:00,72.7,65.1,29.91,NNE,24,0.0,9.0,77,0.00,,CLR,0.95,0.00,VWS V14.01,2013-06-06 03:07:00,
2013-06-05 22:12:00,72.5,65.3,29.91,NNE,27,0.0,0.0,78,0.00,,CLR,0.95,0.00,VWS V14.01,2013-06-06 03:12:00,
2013-06-05 22:17:00,72.4,65.5,29.92,NNE,27,0.0,3.0,79,0.00,,CLR,0.95,0.00,VWS V14.01,2013-06-06 03:17:00,
2013-06-05 22:22:00,72.0,65.5,29.92,NNE,28,0.0,0.0,80,0.00,,CLR,0.95,0.00,VWS V14.01,2013-06-06 03:22:00,
2013-06-05 22:27:00,71.8,65.7,29.92,NNE,24,0.0,2.0,81,0.00,,CLR,0.95,0.00,VWS V14.01,2013-06-06 03:27:00,
2013-06-05 22:32:00,71.7,65.6,29.92,NE,34,4.0,5.0,81,0.00,,CLR,0.95,0.00,VWS V14.01,2013-06-06 03:32:00,
2013-06-05 22:37:00,71.5,65.7,29.92,NNE,33,0.0,0.0,82,0.00,,CLR,0.95,0.00,VWS V14.01,2013-06-06 03:37:00,
2013-06-05 22:42:00,71.3,65.9,29.92,NNE,32,5.0,5.0,83,0.00,,CLR,0.95,0.00,VWS V14.01,2013-06-06 03:42:00,
2013-06-05 22:47:00,71.2,66.1,29.92,NNE,28,0.0,5.0,84,0.00,,CLR,0.95,0.00,VWS V14.01,2013-06-06 03:47:00,
2013-06-05 22:52:00,70.8,65.7,29.92,NNE,21,0.0,0.0,84,0.00,,CLR,0.95,0.00,VWS V14.01,2013-06-06 03:52:00,
2013-06-05 22:57:00,70.5,65.8,29.92,NNE,19,5.0,9.0,85,0.00,,CLR,0.95,0.00,VWS V14.01,2013-06-06 03:57:00,
2013-06-05 23:01:00,70.3,65.6,29.92,NNE,30,6.0,6.0,85,0.00,,CLR,0.95,0.00,VWS V14.01,2013-06-06 04:01:00,
2013-06-05 23:06:00,70.1,65.4,29.92,NNE,29,4.0,6.0,85,0.00,,CLR,0.95,0.00,VWS V14.01,2013-06-06 04:06:00,
2013-06-05 23:11:00,69.8,65.1,29.92,NNE,32,0.0,0.0,85,0.00,,CLR,0.95,0.00,VWS V14.01,2013-06-06 04:11:00,
2013-06-05 23:16:00,69.6,64.9,29.93,NNE,26,10.0,10.0,85,0.00,,CLR,0.95,0.00,VWS V14.01,2013-06-06 04:16:00,
2013-06-05 23:21:00,69.3,64.6,29.93,NNE,33,0.0,9.0,85,0.00,,CLR,0.95,0.00,VWS V14.01,2013-06-06 04:21:00,
2013-06-05 23:26:00,69.1,64.7,29.93,NNE,32,0.0,0.0,86,0.00,,CLR,0.95,0.00,VWS V14.01,2013-06-06 04:26:00,
2013-06-05 23:32:00,68.8,64.4,29.93,NE,35,0.0,0.0,86,0.00,,CLR,0.95,0.00,VWS V14.01,2013-06-06 04:32:00,
2013-06-05 23:37:00,68.8,64.4,29.93,NNE,33,0.0,0.0,86,0.00,,CLR,0.95,0.00,VWS V14.01,2013-06-06 04:37:00,
2013-06-05 23:42:00,68.6,64.6,29.93,NE,34,0.0,0.0,87,0.00,,CLR,0.95,0.00,VWS V14.01,2013-06-06 04:42:00,
2013-06-05 23:47:00,68.4,64.4,29.93,NNE,33,0.0,4.0,87,0.00,,CLR,0.95,0.00,VWS V14.01,2013-06-06 04:47:00,
2013-06-05 23:52:00,68.3,64.3,29.93,NNE,33,0.0,0.0,87,0.00,,CLR,0.95,0.00,VWS V14.01,2013-06-06 04:52:00,
2013-06-05 23:57:00,68.1,64.1,29.93,NNE,32,0.0,0.0,87,0.00,,CLR,0.95,0.00,VWS V14.01,2013-06-06 04:57:00,